Location: *
(8.1470°S, 175.2800°W)
Time: 07:44:27
(UTC+00:00)

Daily predictions for brighter satellites

Satellite Brightness Start Highest point End
(mag) Time Altitude Azimuth Time Altitude Azimuth Time Altitude Azimuth
SL-16 R/B 4.4 14:13:22 10° S 14:15:21 22° S 14:15:21 22° S
CZ-2C R/B 4.0 15:01:27 10° NE 15:05:24 29° ESE 15:09:23 10° SSE
GPS 2-17 Rocket1 4.3 15:07:30 38° S 15:07:43 38° SSE 15:12:13 10° E
Cosmos 2058 4.1 15:04:36 10° SSE 15:08:07 42° ESE 15:08:07 42° ESE
ARIANE 5 DEB (SYLDA) 4.0 15:11:30 29° NNE 15:11:30 29° NNE 15:14:32 10° ENE
CZ-3C R/B 3.3 15:09:43 17° SSW 15:11:21 19° SSE 15:15:52 10° ESE
ARIANE 5 R/B 4.3 15:13:31 46° NNW 15:14:48 50° NNE 23:24:50 10° E
IDEFIX/ARIANE 42P 4.0 15:18:31 24° SSW 15:18:31 24° SSW 15:20:37 10° SSW
COSMOS 2441 4.5 15:15:28 65° ENE 15:15:58 72° ESE 15:20:45 10° S
Meteor 1-28 Rocket 4.4 15:13:20 10° SSE 15:16:26 42° ESE 15:16:26 42° ESE
Mugunghwa Rocket 4.1 15:17:25 53° N 15:18:16 58° NNE 15:24:28 10° ESE
Cosmos 1340 Rocket 4.1 15:20:53 33° S 15:20:53 33° S 15:23:11 10° S
DELTA 2 R/B (1) 3.4 15:22:54 72° W 15:23:16 76° SW 15:28:50 10° SE
Centaur D AC-29 4.2 15:24:29 12° N 15:24:29 12° N 15:26:23 10° NNE
H-2A R/B 2.6 15:25:36 68° NE 15:26:02 76° ESE 15:30:12 10° S
MSX 3.7 15:24:38 44° N 15:26:28 71° WNW 15:32:15 10° SSW
Cosmos 773 Rocket 4.0 15:26:59 49° N 15:28:26 81° ENE 15:33:42 10° SSE
In-Cosmos 22 Rocket 4.4 15:23:53 10° S 15:29:09 64° E 15:34:24 10° NNE
FALCON 9 R/B 4.4 15:31:07 13° N 15:31:07 13° N 15:33:01 10° NNE
Ariane H10-3 4.2 15:30:13 12° NNE 15:30:13 12° NNE 15:31:37 10° NE
Ariane 42L Rocket 3.0 15:31:52 51° N 15:31:56 51° N 15:41:56 10° ENE
Hubble Space Telescope 1.2 15:33:39 53° SSW 15:33:39 53° SSW 15:37:33 10° SE
SJ-6F 4.4 15:34:33 33° NNE 15:36:20 79° E 15:40:27 10° S
Cosmos 1842 Rocket 4.0 15:35:16 25° NNE 15:37:39 58° E 15:41:55 10° SSE
CZ-4B R/B 3.8 15:35:35 10° NNE 15:39:21 48° ESE 15:43:20 10° S
Palapa B4 Rocket 3.7 15:38:26 33° W 15:41:47 75° NNW 15:46:41 10° ENE
Ariane 44P Rocket 3.7 15:42:22 23° NNE 15:42:29 23° NNE 15:47:08 10° ENE
Cosmos 1689 Rocket 2.6 15:39:46 10° SSE 15:42:32 57° E 15:42:32 57° E
Cosmos 1656 3.6 15:41:23 25° N 15:44:37 81° ENE 15:50:11 10° SSE
STARLINK 1050 4.1 15:45:43 24° S 15:46:51 36° SE 15:49:22 10° NE
COSMOS 2487 2.7 15:43:49 10° SSW 15:46:36 53° SW 15:46:36 53° SW
STARLINK 1055 4.0 15:46:25 23° S 15:47:37 37° SE 15:50:09 10° NE
STARLINK 1022 3.9 15:47:09 23° S 15:48:24 38° SE 15:50:57 10° NE
STARLINK 1042 3.9 15:47:42 23° S 15:48:57 39° SE 15:51:30 10° NE
STARLINK 1056 3.8 15:48:31 23° S 15:49:49 41° SE 15:52:23 10° NE
STARLINK 1054 3.7 15:49:27 22° S 15:50:48 43° SE 15:53:23 10° NE
STARLINK 1062 3.6 15:49:55 22° S 15:51:19 44° SE 15:53:55 10° NE
Cosmos 2100 Rocket 4.1 15:46:12 10° S 15:52:31 81° E 15:58:42 10° N
STARLINK 1053 3.5 15:51:13 22° S 15:52:42 47° SE 15:55:19 10° NE
ARIANE 5 R/B 3.3 15:41:27 25° WNW 15:52:42 61° N 15:57:03 10° ENE
STARLINK 1061 3.5 15:51:23 22° S 15:52:50 47° SE 15:55:26 10° NE
STARLINK 1067 3.4 15:51:36 24° S 15:52:54 47° SE 15:55:29 10° NE
STARLINK 1058 3.3 15:53:04 21° SSW 15:54:38 52° SE 15:57:17 10° NE
STARLINK 1027 3.2 15:53:16 19° SSW 15:54:58 53° SE 15:57:39 10° NE
STARLINK 1028 3.2 15:53:25 19° SSW 15:55:08 54° SE 15:57:48 10° NE
STARLINK 1021 3.2 15:53:40 20° SSW 15:55:20 54° SE 15:58:01 10° NE
STARLINK 1019 3.2 15:53:48 20° SSW 15:55:28 54° SE 15:58:08 10° NE
STARLINK 1043 3.2 15:53:56 21° SSW 15:55:28 54° SE 15:58:07 10° NE
STARLINK 1012 3.2 15:53:50 19° SSW 15:55:34 55° SE 15:58:15 10° NE
STARLINK 1010 3.2 15:53:58 19° SSW 15:55:43 55° SE 15:58:24 10° NE
STARLINK 1026 3.2 15:54:07 19° SSW 15:55:53 56° SE 15:58:34 10° NE
STARLINK 1013 3.1 15:54:16 19° SSW 15:56:02 56° SE 15:58:43 10° NE
STARLINK 1017 3.1 15:54:22 20° SSW 15:56:04 56° SE 15:58:44 10° NE
STARLINK 1065 3.1 15:54:29 20° SSW 15:56:08 56° SE 15:58:48 10° NE
STARLINK 1009 3.1 15:54:24 19° SSW 15:56:10 56° SE 15:58:51 10° NE
STARLINK 1015 3.1 15:54:32 19° SSW 15:56:18 57° SE 15:59:01 10° NE
STARLINK 1016 3.1 15:54:41 19° SSW 15:56:28 57° SE 15:59:09 10° NE
STARLINK 1048 3.1 15:54:54 20° SSW 15:56:35 57° SE 15:59:16 10° NE
STARLINK 1008 3.1 15:54:54 19° SSW 15:56:40 58° SE 15:59:21 10° NE
STARLINK 1014 3.1 15:54:57 18° SSW 15:56:45 58° SE 15:59:27 10° NE
Cosmos 1892 2.5 15:53:00 10° S 15:56:51 74° W 16:00:13 13° N
STARLINK 1025 3.1 15:55:07 18° SSW 15:56:55 59° SE 15:59:37 10° NE
STARLINK 1063 3.0 15:55:31 20° SSW 15:57:13 59° SE 15:59:54 10° NE
STARLINK 1023 3.0 15:55:29 19° SSW 15:57:15 60° SE 15:59:56 10° NE
STARLINK 1007 3.0 15:55:32 18° SSW 15:57:22 60° SE 16:00:03 10° NE
STARLINK 1049 3.0 15:55:51 19° SSW 15:57:39 61° SE 16:00:22 10° NE
STARLINK 1051 3.0 15:55:55 18° SSW 15:57:47 61° SE 16:00:29 10° NE
STARLINK 1064 2.9 15:56:04 19° SSW 15:57:49 61° SE 16:00:29 10° NE
STARLINK 1037 2.9 15:56:09 18° SSW 15:57:58 62° SE 16:00:40 10° NE
STARLINK 1059 2.9 15:56:16 18° SSW 15:58:08 62° SE 16:00:50 10° NE
STARLINK 1057 2.9 15:56:22 18° SSW 15:58:15 63° SE 16:00:58 10° NE
STARLINK 1045 2.9 15:56:30 18° SSW 15:58:20 63° ESE 16:01:02 10° NE
STARLINK 1052 2.9 15:56:31 18° SSW 15:58:25 63° SE 16:01:07 10° NE
STARLINK 1068 2.9 15:56:40 18° SSW 15:58:34 64° SE 16:01:16 10° NE
STARLINK 1041 2.9 15:56:57 19° SSW 15:58:40 64° SE 16:01:22 10° NE
STARLINK 1029 2.9 15:56:48 18° SSW 15:58:42 64° SE 16:01:25 10° NE
STARLINK 1060 2.9 15:56:54 17° SSW 15:58:49 65° SE 16:01:32 10° NE
STARLINK 1030 2.8 15:57:09 18° SSW 15:59:02 65° SE 16:01:45 10° NE
STARLINK 1020 2.8 15:57:12 17° SSW 15:59:09 66° SE 16:01:52 10° NE
STARLINK 1034 2.8 15:57:21 17° SSW 15:59:18 66° SE 16:02:01 10° NE
STARLINK 1046 2.8 15:57:44 19° SSW 15:59:27 66° SE 16:02:08 10° NE
STARLINK 1038 2.8 15:57:42 18° SSW 15:59:31 67° SE 16:02:13 10° NE
STARLINK 1033 2.8 15:57:39 17° SSW 15:59:37 67° ESE 16:02:20 10° NE
STARLINK 1031 2.8 15:57:49 17° SSW 15:59:46 68° SE 16:02:30 10° NE
STARLINK 1047 2.8 15:58:04 18° SSW 15:59:56 68° SE 16:02:38 10° NE
STARLINK 1024 2.8 15:58:02 17° SSW 15:59:58 68° SE 16:02:41 10° NE
STARLINK 1035 2.8 15:58:07 17° SSW 16:00:05 69° SE 16:02:49 10° NE
STARLINK 1032 2.7 15:58:15 17° SSW 16:00:14 70° SE 16:02:57 10° NE
STARLINK 1011 2.7 15:58:30 17° SSW 16:00:25 70° SE 16:03:08 10° NE
STARLINK 1036 2.7 15:58:31 17° SSW 16:00:31 71° SE 16:03:15 10° NE
CAT/Thesee 2.5 16:01:00 66° SSE 16:01:00 66° SSE 16:02:48 10° E
STARLINK 1039 2.6 15:59:21 18° SSW 16:01:15 73° SE 16:03:58 10° NE
CZ-4B R/B 3.2 15:59:17 10° SSW 16:00:27 17° SW 16:00:27 17° SW
Cosmos 1538 Rocket 4.1 15:58:42 23° NNW 16:01:56 59° WSW 16:07:09 10° S
Cosmos 1125 Rocket 3.7 15:57:17 10° S 16:02:37 77° ESE 16:07:54 10° NNE
Meteor 1-27 4.3 15:57:26 10° N 16:03:14 82° E 16:09:00 10° S
Cosmos 1833 4.1 15:58:54 10° SSW 16:04:31 67° WNW 16:10:04 10° N
Cosmos 2150 Rocket 4.4 16:01:10 10° SSW 16:06:17 42° W 16:11:23 10° N
Lacrosse 4 Rocket 1.9 16:05:17 29° WNW 16:06:56 42° WSW 16:11:07 10° S
Meteor 2-10 Rocket 4.3 16:04:19 22° NW 16:07:30 39° W 16:12:54 10° SSW
Cosmos 1825 3.5 16:06:09 10° SSE 16:09:44 41° E 16:13:16 10° NNE
GPS 2-14 Rocket1 4.2 16:11:09 20° NW 16:11:41 21° NNW 16:14:53 10° NNE
Cosmos 1802 Rocket 4.1 16:05:17 10° S 16:11:42 88° E 16:18:07 10° N
Cosmos 1437 4.4 16:11:02 10° SSE 16:13:52 34° E 16:16:40 10° NNE
PSLV R/B 4.3 16:11:06 10° SSE 16:15:09 64° ENE 16:19:12 10° N
Skynet4D Del rocket 4.4 16:09:07 10° WSW 16:15:57 81° SSE 16:23:46 10° ENE
Cosmos 2173 Rocket 4.1 16:16:07 10° SSW 16:22:19 56° W 16:28:27 10° N
ASTEX 1 3.4 16:20:35 10° S 16:25:31 89° W 16:30:27 10° N
Cosmos 2151 3.7 16:22:10 10° SSW 16:26:02 33° W 16:29:54 10° NNW
ALOS 3.1 16:22:17 10° NNE 16:26:50 54° ESE 16:31:24 10° S
FALCON 9 DEB 3.3 16:26:47 20° W 16:27:34 24° WNW 16:29:36 10° N
USA 267 3.2 16:21:52 10° NNE 16:28:24 78° NW 16:34:58 10° SW
Okean O Rocket 2.9 16:25:41 10° NNE 16:29:51 45° ESE 16:34:04 10° S
Starlink Launch 2 leader 3.5 16:29:04 18° W 16:29:57 21° WNW 16:31:55 10° N
Timation 2 Rocket 4.0 16:23:46 10° SSW 16:30:16 89° WNW 16:36:26 10° NNE
Cosmos 2061 Rocket 4.0 16:24:01 10° S 16:30:22 72° W 16:36:36 10° N
Cosmos 1408 Rocket 3.5 16:27:32 10° SSW 16:31:47 58° W 16:35:59 10° N
Starlink Launch 2 trailer 3.8 16:32:38 15° W 16:33:36 18° WNW 16:35:26 10° N
FALCON 9 DEB 3.7 16:32:56 15° W 16:33:54 18° WNW 16:35:42 10° N
Meteor 2-2 Rocket 4.3 16:29:10 10° NNW 16:34:48 67° W 16:40:35 10° S
FALCON 9 DEB 3.8 16:34:53 13° W 16:36:00 17° WNW 16:37:43 10° NNW
ASTRO E2 3.5 16:32:25 10° NW 16:36:13 45° NNE 16:40:02 10° ESE
Cosmos 1980 Rocket 2.7 16:31:41 10° N 16:37:15 64° ENE 16:42:49 10° SSE
ARIANE 5 DEB (SYLDA) 3.6 16:34:54 12° WNW 16:37:46 34° N 16:41:04 10° ENE
Cosmos 1500 Rocket 4.3 16:34:47 10° S 16:39:12 61° E 16:43:36 10° NNE
Meteor 1-31 Rocket 4.3 16:36:41 10° NW 16:39:16 17° W 16:41:52 10° WSW
Cosmos 1864 Rocket 4.4 16:34:57 10° S 16:41:05 79° W 16:47:11 10° N
Cosmos 2221 3.7 16:39:23 10° NW 16:42:51 23° W 16:46:20 10° SSW
Cosmos 1408 3.4 16:39:33 10° SSW 16:42:52 30° W 16:46:09 10° NNW
CZ-2C R/B 3.9 16:41:30 10° NW 16:43:27 13° W 16:45:23 10° WSW
Cosmos 1484 Rocket 3.3 16:40:57 10° NNW 16:44:36 37° W 16:48:16 10° SSW
ARIANE 5 DEB (SYLDA) 4.3 16:35:15 10° W 16:45:53 51° N 16:50:01 10° ENE
STARLINK 1040 4.4 16:45:20 10° W 16:46:35 13° WNW 16:47:49 10° NNW
NOAA 6 4.2 16:42:52 10° NNE 16:47:58 79° ESE 16:53:06 10° S
GPS 2-17 Rocket1 3.2 16:46:24 10° WSW 16:51:17 78° NNW 16:56:05 10° ENE
